Regional Weather Roundup
Issued by NWS

Home | Current Version | Previous Version | Graphics & Text | Print | Product List | Glossary On
Versions: 1 2 3 4 5 6 7 8 9 10 11 12 13 14 15 16 17 18 19 20 21 22 23 24 25 26 27 28 29 30 31 32 33 34 35 36 37 38 39 40 41 42 43 44 45 46 47 48 49 50
325
ASUS43 KIND 251309
RWRIN

WEATHER ROUNDUP FOR INDIANA
NATIONAL WEATHER SERVICE INDIANAPOLIS IN
900 AM EDT MON JUL 25 2016

NOTE: "FAIR" INDICATES FEW OR NO CLOUDS BELOW 12,000 FEET WITH NO
SIGNIFICANT WEATHER AND/OR OBSTRUCTIONS TO VISIBILITY.

* - STATION DOES NOT REPORT WEATHER SUCH AS PRECIPITATION OR FOG.

+ - STATION NOT QUALITY CONTROLLED BY THE NATIONAL WEATHER SERVICE.
    USE DATA WITH CAUTION...ESPECIALLY DEWPOINT AND RELATIVE
    HUMIDITY OBSERVATIONS.

INZ001>003-010>013-019-020-251400-
NORTHWEST INDIANA

CITY           SKY/WX    TMP DP  RH WIND       PRES   REMARKS
GARY /AIRPORT/ PTSUNNY   79 N/A N/A W8        29.97S
KNOX *+        MOSUNNY   70  66  88 S5        29.98R
LA PORTE +     CLOUDY    76  74  92 CALM      29.99S
MICHIGAN CITY+ PTSUNNY   77  70  78 NW7       29.97S
MONTICELLO +   CLOUDY    72  66  82 SW5       29.98F
RENSSELAER +   CLOUDY    72  70  94 SW7       29.99S
VALPARAISO     CLOUDY    76  69  79 NW5       29.98S

$$

LMZ046-743>745-251400-
SOUTHERN LAKE MICHIGAN

STATION/POSITION TIME  TEMP    WIND        PRES    WAVE
                       AIR SEA DIR/SP/G            HT
                 (UTC) (F)     (DEG/KT/KT) (MB)    (FT)
BURNS HARBOR     1202   74     260/  5/ 12 1015.2R
MICHIGAN CITY    1200   74     250/  7/  8   N/A
5NW MICH CITY    1300   75 73  320/  8/ 10   N/A     2

$$

INZ004-005-014>016-021>024-251400-
NORTH CENTRAL INDIANA

CITY           SKY/WX    TMP DP  RH WIND       PRES   REMARKS
ELKHART        CLOUDY    73  72  94 W5        29.97F
GOSHEN         CLOUDY    73  67  81 W7        29.97F
LOGANSPORT +   CLOUDY    70  68  94 S3        29.99F
PERU/GRISSOM   CLOUDY    72  69  92 SW3       29.99F
ROCHESTER +    CLOUDY    73  72  94 SW6       30.00S
SOUTH BEND     CLOUDY    75  69  81 NW7       29.97S
WARSAW +       MOSUNNY   72  68  88 W5        29.99S

$$

INZ006>009-017-018-025>027-251400-
NORTHEAST INDIANA

CITY           SKY/WX    TMP DP  RH WIND       PRES   REMARKS
ANGOLA *+        N/A     73  66  78 W7        29.98S
AUBURN +       CLOUDY    73  64  73 SW3       29.99F
FORT WAYNE     PTSUNNY   73  68  84 SW9       30.01R
HUNTINGTON +   PTSUNNY  N/A N/A N/A CALM      30.00S

$$

INZ028-029-035-036-043>045-051>053-251400-
WEST CENTRAL INDIANA

CITY           SKY/WX    TMP DP  RH WIND       PRES   REMARKS
CRAWFORDSVL +  CLOUDY    73  71  95 SW6       30.03R
GREENCASTLE +  CLOUDY    73  72  94 NW3       30.04R
LAFAYETTE      CLOUDY    71  71 100 S5        29.99F
TERRE HAUTE    CLOUDY    76  69  79 N8        30.02R

$$

INZ030>032-037>040-046>048-054>057-064-065-251400-
CENTRAL INDIANA

CITY           SKY/WX    TMP DP  RH WIND       PRES   REMARKS
COLUMBUS       SUNNY     75  75 100 CALM      30.00F
INDIANAPOLIS   PTSUNNY   77  68  73 W5        30.02R
-EAGLE CREEK   PTSUNNY   79  69  71 NW6       30.01S
KOKOMO *+      CLOUDY    75  64  69 NW5       30.01R
MARION +       CLOUDY    72  67  84 CALM      30.02F
MT COMFORT *+  CLOUDY    77  70  78 N8        30.03R
SHELBYVILLE    MOSUNNY   80  70  71 NW5       29.99F
ZIONSVILLE +   MOSUNNY   74  69  83 NW6       30.03S

$$

INZ033-034-041-042-049-050-058-059-251400-
EAST CENTRAL INDIANA

CITY           SKY/WX    TMP DP  RH WIND       PRES   REMARKS
MUNCIE         CLOUDY    76  68  76 NW6       30.03R

$$

INZ060-061-067>069-081>083-085>088-251400-
SOUTHWEST INDIANA

CITY           SKY/WX    TMP DP  RH WIND       PRES   REMARKS
EVANSVILLE     MOSUNNY   79  72  79 SE3       29.99F
HUNTINGBURG *+ PTSUNNY   79  73  83 CALM      30.00S
WASHINGTON +   PTSUNNY   74  73  96 MISG      30.00R

$$

INZ062-063-066-070>080-084-089>092-251400-
SOUTH CENTRAL AND SOUTHEAST INDIANA

CITY           SKY/WX    TMP DP  RH WIND       PRES   REMARKS
BLOOMINGTON    PTSUNNY   78  70  76 CALM      30.01S
MADISON *+     MOSUNNY   81  75  83 S5        30.03F

$$





USA.gov is the U.S. government's official web portal to all federal, state and local government web resources and services.